TimeCST,TemperatureF,Dew PointF,Humidity,Sea Level PressureIn,VisibilityMPH,Wind Direction,Wind SpeedMPH,Gust SpeedMPH,PrecipitationIn,Events,Conditions,WindDirDegrees,DateUTC
12:53 AM,24.1,17.1,75,30.34,10.0,Calm,Calm,-,N/A,,Clear,0,2013-12-31 06:53:00
1:53 AM,24.1,16.0,71,30.36,10.0,WSW,4.6,-,N/A,,Clear,240,2013-12-31 07:53:00
2:53 AM,24.1,16.0,71,30.37,10.0,SW,3.5,-,N/A,,Clear,230,2013-12-31 08:53:00
3:53 AM,24.1,15.1,69,30.37,10.0,West,3.5,-,N/A,,Clear,270,2013-12-31 09:53:00
4:53 AM,24.1,15.1,69,30.37,10.0,Calm,Calm,-,N/A,,Clear,0,2013-12-31 10:53:00
5:53 AM,21.9,15.1,75,30.40,10.0,SSW,4.6,-,N/A,,Clear,200,2013-12-31 11:53:00
6:53 AM,21.9,15.1,75,30.41,10.0,Calm,Calm,-,N/A,,Clear,0,2013-12-31 12:53:00
7:53 AM,23.0,16.0,74,30.43,10.0,SSW,4.6,-,N/A,,Clear,200,2013-12-31 13:53:00
8:53 AM,28.0,19.9,72,30.44,10.0,SSW,3.5,-,N/A,,Clear,200,2013-12-31 14:53:00
9:53 AM,33.1,19.0,56,30.46,10.0,Calm,Calm,-,N/A,,Clear,0,2013-12-31 15:53:00
10:53 AM,35.1,19.0,52,30.46,10.0,ENE,4.6,-,N/A,,Clear,60,2013-12-31 16:53:00
11:53 AM,37.9,21.0,51,30.42,10.0,Variable,3.5,-,N/A,,Clear,0,2013-12-31 17:53:00
12:53 PM,39.0,21.9,50,30.39,10.0,SSE,5.8,-,N/A,,Clear,160,2013-12-31 18:53:00
1:53 PM,39.9,24.1,53,30.36,10.0,SSE,8.1,-,N/A,,Clear,160,2013-12-31 19:53:00
2:53 PM,42.1,24.1,49,30.34,10.0,SSE,11.5,-,N/A,,Clear,150,2013-12-31 20:53:00
3:53 PM,41.0,25.0,53,30.34,10.0,SSE,11.5,-,N/A,,Clear,160,2013-12-31 21:53:00
4:53 PM,39.0,25.0,57,30.33,10.0,South,8.1,-,N/A,,Clear,170,2013-12-31 22:53:00
5:53 PM,36.0,25.0,64,30.33,10.0,South,8.1,-,N/A,,Clear,170,2013-12-31 23:53:00
6:53 PM,34.0,25.0,70,30.34,10.0,South,4.6,-,N/A,,Clear,170,2014-01-01 00:53:00
7:53 PM,33.1,24.1,70,30.35,10.0,South,5.8,-,N/A,,Clear,170,2014-01-01 01:53:00
8:53 PM,32.0,24.1,73,30.33,10.0,South,5.8,-,N/A,,Clear,170,2014-01-01 02:53:00
9:53 PM,35.1,26.1,70,30.32,10.0,South,5.8,-,N/A,,Clear,190,2014-01-01 03:53:00
10:53 PM,33.1,26.1,75,30.30,10.0,SSW,4.6,-,N/A,,Clear,200,2014-01-01 04:53:00
11:53 PM,32.0,26.1,79,30.29,10.0,SSW,5.8,-,N/A,,Clear,200,2014-01-01 05:53:00